Year,Month,Day,Hour,Minute,Value (Times are PST for windspeed in km/hr)
2014,02,17,00,00,2.20
2014,02,17,00,01,0.90
2014,02,17,00,02,2.80
2014,02,17,00,03,1.90
2014,02,17,00,04,1.30
2014,02,17,00,05,1.70
2014,02,17,00,06,0.70
2014,02,17,00,07,1.70
2014,02,17,00,08,2.20
2014,02,17,00,09,1.40
2014,02,17,00,10,2.50
2014,02,17,00,11,1.70
2014,02,17,00,12,2.10
2014,02,17,00,13,1.30
2014,02,17,00,14,0.50
2014,02,17,00,15,0.70
2014,02,17,00,16,1.30
2014,02,17,00,17,0.30
2014,02,17,00,18,0.40
2014,02,17,00,19,0.40
2014,02,17,00,20,1.20
2014,02,17,00,21,1.10
2014,02,17,00,22,1.20
2014,02,17,00,23,3.70
2014,02,17,00,24,3.60
2014,02,17,00,25,2.90
2014,02,17,00,26,1.10
2014,02,17,00,27,0.00
2014,02,17,00,28,2.10
2014,02,17,00,29,1.30
2014,02,17,00,30,0.90
2014,02,17,00,31,2.40
2014,02,17,00,32,1.80
2014,02,17,00,33,3.80
2014,02,17,00,34,2.90
2014,02,17,00,35,3.00
2014,02,17,00,36,2.70
2014,02,17,00,37,2.40
2014,02,17,00,38,0.80
2014,02,17,00,39,0.60
2014,02,17,00,40,0.10
2014,02,17,00,41,0.70
2014,02,17,00,42,1.00
2014,02,17,00,43,0.20
2014,02,17,00,44,0.50
2014,02,17,00,45,0.70
2014,02,17,00,46,0.80
2014,02,17,00,47,1.60
2014,02,17,00,48,2.60
2014,02,17,00,49,3.40
2014,02,17,00,50,4.40
2014,02,17,00,51,3.70
2014,02,17,00,52,2.40
2014,02,17,00,53,2.40
2014,02,17,00,54,2.00
2014,02,17,00,55,1.90
2014,02,17,00,56,0.90
2014,02,17,00,57,1.00
2014,02,17,00,58,0.90
2014,02,17,00,59,0.80
2014,02,17,01,00,1.90
2014,02,17,01,01,2.30
2014,02,17,01,02,3.50
2014,02,17,01,03,3.50
2014,02,17,01,04,1.90
2014,02,17,01,05,1.70
2014,02,17,01,06,1.00
2014,02,17,01,07,0.90
2014,02,17,01,08,2.00
2014,02,17,01,09,3.10
2014,02,17,01,10,2.30
2014,02,17,01,11,2.50
2014,02,17,01,12,2.40
2014,02,17,01,13,2.70
2014,02,17,01,14,1.90
2014,02,17,01,15,2.60
2014,02,17,01,16,3.00
2014,02,17,01,17,4.00
2014,02,17,01,18,3.90
2014,02,17,01,19,4.30
2014,02,17,01,20,3.70
2014,02,17,01,21,3.20
2014,02,17,01,22,2.90
2014,02,17,01,23,2.60
2014,02,17,01,24,2.50
2014,02,17,01,25,2.30
2014,02,17,01,26,2.40
2014,02,17,01,27,2.30
2014,02,17,01,28,3.00
2014,02,17,01,29,2.80
2014,02,17,01,30,2.50
2014,02,17,01,31,2.40
2014,02,17,01,32,2.10
2014,02,17,01,33,2.30
2014,02,17,01,34,1.30
2014,02,17,01,35,1.80
2014,02,17,01,36,1.90
2014,02,17,01,37,2.20
2014,02,17,01,38,1.80
2014,02,17,01,39,1.70
2014,02,17,01,40,1.80
2014,02,17,01,41,2.00
2014,02,17,01,42,1.30
2014,02,17,01,43,2.10
2014,02,17,01,44,1.70
2014,02,17,01,45,1.80
2014,02,17,01,46,1.40
2014,02,17,01,47,1.40
2014,02,17,01,48,1.80
2014,02,17,01,49,2.70
2014,02,17,01,50,2.80
2014,02,17,01,51,1.70
2014,02,17,01,52,0.70
2014,02,17,01,53,0.60
2014,02,17,01,54,1.70
2014,02,17,01,55,3.30
2014,02,17,01,56,3.70
2014,02,17,01,57,4.50
2014,02,17,01,58,4.80
2014,02,17,01,59,4.20
2014,02,17,02,00,3.40
2014,02,17,02,01,4.00
2014,02,17,02,02,3.30
2014,02,17,02,03,3.10
2014,02,17,02,04,2.90
2014,02,17,02,05,2.90
2014,02,17,02,06,3.00
2014,02,17,02,07,2.80
2014,02,17,02,08,3.20
2014,02,17,02,09,2.70
2014,02,17,02,10,2.20
2014,02,17,02,11,3.60
2014,02,17,02,12,5.30
2014,02,17,02,13,5.70
2014,02,17,02,14,3.90
2014,02,17,02,15,2.10
2014,02,17,02,16,1.30
2014,02,17,02,17,2.40
2014,02,17,02,18,1.30
2014,02,17,02,19,0.40
2014,02,17,02,20,0.70
2014,02,17,02,21,1.80
2014,02,17,02,22,2.20
2014,02,17,02,23,1.60
2014,02,17,02,24,1.80
2014,02,17,02,25,1.70
2014,02,17,02,26,2.80
2014,02,17,02,27,1.70
2014,02,17,02,28,1.40
2014,02,17,02,29,2.20
2014,02,17,02,30,3.00
2014,02,17,02,31,3.40
2014,02,17,02,32,2.30
2014,02,17,02,33,2.70
2014,02,17,02,34,3.60
2014,02,17,02,35,2.30
2014,02,17,02,36,2.00
2014,02,17,02,37,1.20
2014,02,17,02,38,1.00
2014,02,17,02,39,1.00
2014,02,17,02,40,0.20
2014,02,17,02,41,0.60
2014,02,17,02,42,2.20
2014,02,17,02,43,1.00
2014,02,17,02,44,2.70
2014,02,17,02,45,2.30
2014,02,17,02,46,2.90
2014,02,17,02,47,2.80
2014,02,17,02,48,3.60
2014,02,17,02,49,2.30
2014,02,17,02,50,1.70
2014,02,17,02,51,0.60
2014,02,17,02,52,1.20
2014,02,17,02,53,0.90
2014,02,17,02,54,1.40
2014,02,17,02,55,0.70
2014,02,17,02,56,0.70
2014,02,17,02,57,0.60
2014,02,17,02,58,1.40
2014,02,17,02,59,0.80
2014,02,17,03,00,1.40
2014,02,17,03,01,3.20
2014,02,17,03,02,2.10
2014,02,17,03,03,1.80
2014,02,17,03,04,2.30
2014,02,17,03,05,2.40
2014,02,17,03,06,2.00
2014,02,17,03,07,1.70
2014,02,17,03,08,0.90
2014,02,17,03,09,1.50
2014,02,17,03,10,0.30
2014,02,17,03,11,0.80
2014,02,17,03,12,1.20
2014,02,17,03,13,1.50
2014,02,17,03,14,1.10
2014,02,17,03,15,0.40
2014,02,17,03,16,0.70
2014,02,17,03,17,1.60
2014,02,17,03,18,1.80
2014,02,17,03,19,1.50
2014,02,17,03,20,2.60
2014,02,17,03,21,2.20
2014,02,17,03,22,1.90
2014,02,17,03,23,1.80
2014,02,17,03,24,1.40
2014,02,17,03,25,0.80
2014,02,17,03,26,0.20
2014,02,17,03,27,0.10
2014,02,17,03,28,0.10
2014,02,17,03,29,1.10
2014,02,17,03,30,1.80
2014,02,17,03,31,1.80
2014,02,17,03,32,1.20
2014,02,17,03,33,0.60
2014,02,17,03,34,0.00
2014,02,17,03,35,0.00
2014,02,17,03,36,1.40
2014,02,17,03,37,2.40
2014,02,17,03,38,2.40
2014,02,17,03,39,3.70
2014,02,17,03,40,3.90
2014,02,17,03,41,2.80
2014,02,17,03,42,2.20
2014,02,17,03,43,2.80
2014,02,17,03,44,2.90
2014,02,17,03,45,2.40
2014,02,17,03,46,1.60
2014,02,17,03,47,0.80
2014,02,17,03,48,1.90
2014,02,17,03,49,1.80
2014,02,17,03,50,1.10
2014,02,17,03,51,1.60
2014,02,17,03,52,1.90
2014,02,17,03,53,2.10
2014,02,17,03,54,0.90
2014,02,17,03,55,1.00
2014,02,17,03,56,0.50
2014,02,17,03,57,1.40
2014,02,17,03,58,0.30
2014,02,17,03,59,0.70
2014,02,17,04,00,2.70
2014,02,17,04,01,2.90
2014,02,17,04,02,2.30
2014,02,17,04,03,1.90
2014,02,17,04,04,2.00
2014,02,17,04,05,1.80
2014,02,17,04,06,1.10
2014,02,17,04,07,1.20
2014,02,17,04,08,0.70
2014,02,17,04,09,0.00
2014,02,17,04,10,0.00
2014,02,17,04,11,0.00
2014,02,17,04,12,1.10
2014,02,17,04,13,2.10
2014,02,17,04,14,1.60
2014,02,17,04,15,2.00
2014,02,17,04,16,2.00
2014,02,17,04,17,1.70
2014,02,17,04,18,2.10
2014,02,17,04,19,1.40
2014,02,17,04,20,0.40
2014,02,17,04,21,0.20
2014,02,17,04,22,0.00
2014,02,17,04,23,0.00
2014,02,17,04,24,0.00
2014,02,17,04,25,1.00
2014,02,17,04,26,0.80
2014,02,17,04,27,0.00
2014,02,17,04,28,0.00
2014,02,17,04,29,0.60
2014,02,17,04,30,1.20
2014,02,17,04,31,1.70
2014,02,17,04,32,2.00
2014,02,17,04,33,1.60
2014,02,17,04,34,1.20
2014,02,17,04,35,1.20
2014,02,17,04,36,1.70
2014,02,17,04,37,1.90
2014,02,17,04,38,1.60
2014,02,17,04,39,0.20
2014,02,17,04,40,1.50
2014,02,17,04,41,1.60
2014,02,17,04,42,1.20
2014,02,17,04,43,1.90
2014,02,17,04,44,1.20
2014,02,17,04,45,3.00
2014,02,17,04,46,1.80
2014,02,17,04,47,0.40
2014,02,17,04,48,0.20
2014,02,17,04,49,1.00
2014,02,17,04,50,1.00
2014,02,17,04,51,0.20
2014,02,17,04,52,0.00
2014,02,17,04,53,0.10
2014,02,17,04,54,1.10
2014,02,17,04,55,2.50
2014,02,17,04,56,2.60
2014,02,17,04,57,2.60
2014,02,17,04,58,2.20
2014,02,17,04,59,2.30
2014,02,17,05,00,2.00
2014,02,17,05,01,3.00
2014,02,17,05,02,2.20
2014,02,17,05,03,2.10
2014,02,17,05,04,2.30
2014,02,17,05,05,2.50
2014,02,17,05,06,1.90
2014,02,17,05,07,2.40
2014,02,17,05,08,2.30
2014,02,17,05,09,1.60
2014,02,17,05,10,0.70
2014,02,17,05,11,0.30
2014,02,17,05,12,0.00
2014,02,17,05,13,0.00
2014,02,17,05,14,0.00
2014,02,17,05,15,0.00
2014,02,17,05,16,0.00
2014,02,17,05,17,0.00
2014,02,17,05,18,0.00
2014,02,17,05,19,0.00
2014,02,17,05,20,0.00
2014,02,17,05,21,0.10
2014,02,17,05,22,2.90
2014,02,17,05,23,1.90
2014,02,17,05,24,2.20
2014,02,17,05,25,1.60
2014,02,17,05,26,0.30
2014,02,17,05,27,0.00
2014,02,17,05,28,0.60
2014,02,17,05,29,2.00
2014,02,17,05,30,0.60
2014,02,17,05,31,0.10
2014,02,17,05,32,0.40
2014,02,17,05,33,1.30
2014,02,17,05,34,1.90
2014,02,17,05,35,3.10
2014,02,17,05,36,3.70
2014,02,17,05,37,2.50
2014,02,17,05,38,1.90
2014,02,17,05,39,2.50
2014,02,17,05,40,2.40
2014,02,17,05,41,1.70
2014,02,17,05,42,1.80
2014,02,17,05,43,2.90
2014,02,17,05,44,1.60
2014,02,17,05,45,2.50
2014,02,17,05,46,2.20
2014,02,17,05,47,2.40
2014,02,17,05,48,1.80
2014,02,17,05,49,1.70
2014,02,17,05,50,1.10
2014,02,17,05,51,2.80
2014,02,17,05,52,2.00
2014,02,17,05,53,2.00
2014,02,17,05,54,0.80
2014,02,17,05,55,1.40
2014,02,17,05,56,2.50
2014,02,17,05,57,3.00
2014,02,17,05,58,3.00
2014,02,17,05,59,1.80
2014,02,17,06,00,2.20
2014,02,17,06,01,2.00
2014,02,17,06,02,3.30
2014,02,17,06,03,2.30
2014,02,17,06,04,1.70
2014,02,17,06,05,0.60
2014,02,17,06,06,0.70
2014,02,17,06,07,0.50
2014,02,17,06,08,0.20
2014,02,17,06,09,0.10
2014,02,17,06,10,0.10
2014,02,17,06,11,0.60
2014,02,17,06,12,0.30
2014,02,17,06,13,0.10
2014,02,17,06,14,1.30
2014,02,17,06,15,1.50
2014,02,17,06,16,1.10
2014,02,17,06,17,1.80
2014,02,17,06,18,0.60
2014,02,17,06,19,0.40
2014,02,17,06,20,1.40
2014,02,17,06,21,1.20
2014,02,17,06,22,1.40
2014,02,17,06,23,1.70
2014,02,17,06,24,1.30
2014,02,17,06,25,0.80
2014,02,17,06,26,0.40
2014,02,17,06,27,0.40
2014,02,17,06,28,0.10
2014,02,17,06,29,0.60
2014,02,17,06,30,0.50
2014,02,17,06,31,1.90
2014,02,17,06,32,1.60
2014,02,17,06,33,1.10
2014,02,17,06,34,0.30
2014,02,17,06,35,0.10
2014,02,17,06,36,0.00
2014,02,17,06,37,0.00
2014,02,17,06,38,0.30
2014,02,17,06,39,0.70
2014,02,17,06,40,0.70
2014,02,17,06,41,1.60
2014,02,17,06,42,0.70
2014,02,17,06,43,0.60
2014,02,17,06,44,1.80
2014,02,17,06,45,0.40
2014,02,17,06,46,0.60
2014,02,17,06,47,0.80
2014,02,17,06,48,0.30
2014,02,17,06,49,0.00
2014,02,17,06,50,0.00
2014,02,17,06,51,0.00
2014,02,17,06,52,0.00
2014,02,17,06,53,0.00
2014,02,17,06,54,0.80
2014,02,17,06,55,0.90
2014,02,17,06,56,1.80
2014,02,17,06,57,2.10
2014,02,17,06,58,2.70
2014,02,17,06,59,1.60
2014,02,17,07,00,0.30
2014,02,17,07,01,0.30
2014,02,17,07,02,0.50
2014,02,17,07,03,0.10
2014,02,17,07,04,0.00
2014,02,17,07,05,0.00
2014,02,17,07,06,0.00
2014,02,17,07,07,0.00
2014,02,17,07,08,0.30
2014,02,17,07,09,0.00
2014,02,17,07,10,0.10
2014,02,17,07,11,0.30
2014,02,17,07,12,1.10
2014,02,17,07,13,0.60
2014,02,17,07,14,0.90
2014,02,17,07,15,0.80
2014,02,17,07,16,0.00
2014,02,17,07,17,0.00
2014,02,17,07,18,0.00
2014,02,17,07,19,0.00
2014,02,17,07,20,0.00
2014,02,17,07,21,0.00
2014,02,17,07,22,0.10
2014,02,17,07,23,0.10
2014,02,17,07,24,0.00
2014,02,17,07,25,0.10
2014,02,17,07,26,0.30
2014,02,17,07,27,0.00
2014,02,17,07,28,0.00
2014,02,17,07,29,0.00
2014,02,17,07,30,1.10
2014,02,17,07,31,1.30
2014,02,17,07,32,1.30
2014,02,17,07,33,1.10
2014,02,17,07,34,0.90
2014,02,17,07,35,1.30
2014,02,17,07,36,1.10
2014,02,17,07,37,1.70
2014,02,17,07,38,2.20
2014,02,17,07,39,1.70
2014,02,17,07,40,0.10
2014,02,17,07,41,1.10
2014,02,17,07,42,0.20
2014,02,17,07,43,0.60
2014,02,17,07,44,0.40
2014,02,17,07,45,0.80
2014,02,17,07,46,1.40
2014,02,17,07,47,2.20
2014,02,17,07,48,2.50
2014,02,17,07,49,1.30
2014,02,17,07,50,0.90
2014,02,17,07,51,1.50
2014,02,17,07,52,1.80
2014,02,17,07,53,1.80
2014,02,17,07,54,1.20
2014,02,17,07,55,1.10
2014,02,17,07,56,1.90
2014,02,17,07,57,1.20
2014,02,17,07,58,1.00
2014,02,17,07,59,1.80
2014,02,17,08,00,1.60
2014,02,17,08,01,1.30
2014,02,17,08,02,1.30
2014,02,17,08,03,1.30
2014,02,17,08,04,0.60
2014,02,17,08,05,0.80
2014,02,17,08,06,0.20
2014,02,17,08,07,0.00
2014,02,17,08,08,0.00
2014,02,17,08,09,0.20
2014,02,17,08,10,2.50
2014,02,17,08,11,1.80
2014,02,17,08,12,0.90
2014,02,17,08,13,0.70
2014,02,17,08,14,0.40
2014,02,17,08,15,0.20
2014,02,17,08,16,0.10
2014,02,17,08,17,0.20
2014,02,17,08,18,1.10
2014,02,17,08,19,2.70
2014,02,17,08,20,3.00
2014,02,17,08,21,3.00
2014,02,17,08,22,3.70
2014,02,17,08,23,4.10
2014,02,17,08,24,3.00
2014,02,17,08,25,2.60
2014,02,17,08,26,2.90
2014,02,17,08,27,2.30
2014,02,17,08,28,2.10
2014,02,17,08,29,3.40
2014,02,17,08,30,3.60
2014,02,17,08,31,4.60
2014,02,17,08,32,4.50
2014,02,17,08,33,4.00
2014,02,17,08,34,5.30
2014,02,17,08,35,5.00
2014,02,17,08,36,2.30
2014,02,17,08,37,2.00
2014,02,17,08,38,2.00
2014,02,17,08,39,3.90
2014,02,17,08,40,2.60
2014,02,17,08,41,3.30
2014,02,17,08,42,2.90
2014,02,17,08,43,1.70
2014,02,17,08,44,2.70
2014,02,17,08,45,1.20
2014,02,17,08,46,1.20
2014,02,17,08,47,1.70
2014,02,17,08,48,1.60
2014,02,17,08,49,1.30
2014,02,17,08,50,2.00
2014,02,17,08,51,3.30
2014,02,17,08,52,1.70
2014,02,17,08,53,3.40
2014,02,17,08,54,0.90
2014,02,17,08,55,2.70
2014,02,17,08,56,3.70
2014,02,17,08,57,2.80
2014,02,17,08,58,2.50
2014,02,17,08,59,3.40
2014,02,17,09,00,2.90
2014,02,17,09,01,1.80
2014,02,17,09,02,2.10
2014,02,17,09,03,3.00
2014,02,17,09,04,1.90
2014,02,17,09,05,3.50
2014,02,17,09,06,2.50
2014,02,17,09,07,4.60
2014,02,17,09,08,4.00
2014,02,17,09,09,3.40
2014,02,17,09,10,3.40
2014,02,17,09,11,3.30
2014,02,17,09,12,2.60
2014,02,17,09,13,4.40
2014,02,17,09,14,4.80
2014,02,17,09,15,3.40
2014,02,17,09,16,4.40
2014,02,17,09,17,3.70
2014,02,17,09,18,2.20
2014,02,17,09,19,3.30
2014,02,17,09,20,2.50
2014,02,17,09,21,3.60
2014,02,17,09,22,3.60
2014,02,17,09,23,3.80
2014,02,17,09,24,3.60
2014,02,17,09,25,3.30
2014,02,17,09,26,3.60
2014,02,17,09,27,3.90
2014,02,17,09,28,2.60
2014,02,17,09,29,4.90
2014,02,17,09,30,5.00
2014,02,17,09,31,5.20
2014,02,17,09,32,6.30
2014,02,17,09,33,5.50
2014,02,17,09,34,3.30
2014,02,17,09,35,2.00
2014,02,17,09,36,2.80
2014,02,17,09,37,4.40
2014,02,17,09,38,4.50
2014,02,17,09,39,3.40
2014,02,17,09,40,2.50
2014,02,17,09,41,4.80
2014,02,17,09,42,3.60
2014,02,17,09,43,3.80
2014,02,17,09,44,2.90
2014,02,17,09,45,2.70
2014,02,17,09,46,3.40
2014,02,17,09,47,1.90
2014,02,17,09,48,2.20
2014,02,17,09,49,3.20
2014,02,17,09,50,2.50
2014,02,17,09,51,4.80
2014,02,17,09,52,3.30
2014,02,17,09,53,6.40
2014,02,17,09,54,4.10
2014,02,17,09,55,4.80
2014,02,17,09,56,5.70
2014,02,17,09,57,6.60
2014,02,17,09,58,4.80
2014,02,17,09,59,5.90
2014,02,17,10,00,6.60
2014,02,17,10,01,5.60
2014,02,17,10,02,8.90
2014,02,17,10,03,7.70
2014,02,17,10,04,5.70
2014,02,17,10,05,6.70
2014,02,17,10,06,5.70
2014,02,17,10,07,9.30
2014,02,17,10,08,5.30
2014,02,17,10,09,8.80
2014,02,17,10,10,5.90
2014,02,17,10,11,3.90
2014,02,17,10,12,6.40
2014,02,17,10,13,6.00
2014,02,17,10,14,5.50
2014,02,17,10,15,8.60
2014,02,17,10,16,8.10
2014,02,17,10,17,6.30
2014,02,17,10,18,10.10
2014,02,17,10,19,5.00
2014,02,17,10,20,7.60
2014,02,17,10,21,6.40
2014,02,17,10,22,3.40
2014,02,17,10,23,3.50
2014,02,17,10,24,5.90
2014,02,17,10,25,4.50
2014,02,17,10,26,5.50
2014,02,17,10,27,6.20
2014,02,17,10,28,3.70
2014,02,17,10,29,6.40
2014,02,17,10,30,5.40
2014,02,17,10,31,6.10
2014,02,17,10,32,5.10
2014,02,17,10,33,2.70
2014,02,17,10,34,4.70
2014,02,17,10,35,4.40
2014,02,17,10,36,5.60
2014,02,17,10,37,5.20
2014,02,17,10,38,6.20
2014,02,17,10,39,5.90
2014,02,17,10,40,7.20
2014,02,17,10,41,4.90
2014,02,17,10,42,6.00
2014,02,17,10,43,4.50
2014,02,17,10,44,6.00
2014,02,17,10,45,6.10
2014,02,17,10,46,4.90
2014,02,17,10,47,2.60
2014,02,17,10,48,5.90
2014,02,17,10,49,5.30
2014,02,17,10,50,4.80
2014,02,17,10,51,5.70
2014,02,17,10,52,5.70
2014,02,17,10,53,5.40
2014,02,17,10,54,5.10
2014,02,17,10,55,4.30
2014,02,17,10,56,2.40
2014,02,17,10,57,3.20
2014,02,17,10,58,4.30
2014,02,17,10,59,6.70
2014,02,17,11,00,5.40
2014,02,17,11,01,1.50
2014,02,17,11,02,5.10
2014,02,17,11,03,5.10
2014,02,17,11,04,5.40
2014,02,17,11,05,5.00
2014,02,17,11,06,5.60
2014,02,17,11,07,7.60
2014,02,17,11,08,6.00
2014,02,17,11,09,5.20
2014,02,17,11,10,2.60
2014,02,17,11,11,4.90
2014,02,17,11,12,4.60
2014,02,17,11,13,4.10
2014,02,17,11,14,4.90
2014,02,17,11,15,4.20
2014,02,17,11,16,2.30
2014,02,17,11,17,2.80
2014,02,17,11,18,4.10
2014,02,17,11,19,4.70
2014,02,17,11,20,4.40
2014,02,17,11,21,3.90
2014,02,17,11,22,3.30
2014,02,17,11,23,6.90
2014,02,17,11,24,2.50
2014,02,17,11,25,4.30
2014,02,17,11,26,2.50
2014,02,17,11,27,2.80
2014,02,17,11,28,1.70
2014,02,17,11,29,3.10
2014,02,17,11,30,4.80
2014,02,17,11,31,4.70
2014,02,17,11,32,4.70
2014,02,17,11,33,2.40
2014,02,17,11,34,3.20
2014,02,17,11,35,4.50
2014,02,17,11,36,2.90
2014,02,17,11,37,2.90
2014,02,17,11,38,0.70
2014,02,17,11,39,1.30
2014,02,17,11,40,2.60
2014,02,17,11,41,3.00
2014,02,17,11,42,4.00
2014,02,17,11,43,4.20
2014,02,17,11,44,2.20
2014,02,17,11,45,3.70
2014,02,17,11,46,3.30
2014,02,17,11,47,2.80
2014,02,17,11,48,2.80
2014,02,17,11,49,2.50
2014,02,17,11,50,3.50
2014,02,17,11,51,1.80
2014,02,17,11,52,0.80
2014,02,17,11,53,2.00
2014,02,17,11,54,3.30
2014,02,17,11,55,2.50
2014,02,17,11,56,2.60
2014,02,17,11,57,3.70
2014,02,17,11,58,4.20
2014,02,17,11,59,2.00
2014,02,17,12,00,2.50
2014,02,17,12,01,1.50
2014,02,17,12,02,2.40
2014,02,17,12,03,2.80
2014,02,17,12,04,0.80
2014,02,17,12,05,1.30
2014,02,17,12,06,3.50
2014,02,17,12,07,2.60
2014,02,17,12,08,2.40
2014,02,17,12,09,2.30
2014,02,17,12,10,1.30
2014,02,17,12,11,0.10
2014,02,17,12,12,0.00
2014,02,17,12,13,1.30
2014,02,17,12,14,1.70
2014,02,17,12,15,0.80
2014,02,17,12,16,2.80
2014,02,17,12,17,2.90
2014,02,17,12,18,2.80
2014,02,17,12,19,2.80
2014,02,17,12,20,3.00
2014,02,17,12,21,1.00
2014,02,17,12,22,0.80
2014,02,17,12,23,3.20
2014,02,17,12,24,2.80
2014,02,17,12,25,2.50
2014,02,17,12,26,3.20
2014,02,17,12,27,2.50
2014,02,17,12,28,3.20
2014,02,17,12,29,3.00
2014,02,17,12,30,2.30
2014,02,17,12,31,0.30
2014,02,17,12,32,4.00
2014,02,17,12,33,3.60
2014,02,17,12,34,4.70
2014,02,17,12,35,3.40
2014,02,17,12,36,1.70
2014,02,17,12,37,2.50
2014,02,17,12,38,2.40
2014,02,17,12,39,4.80
2014,02,17,12,40,2.00
2014,02,17,12,41,3.30
2014,02,17,12,42,4.20
2014,02,17,12,43,3.80
2014,02,17,12,44,4.40
2014,02,17,12,45,0.70
2014,02,17,12,46,0.20
2014,02,17,12,47,1.90
2014,02,17,12,48,3.00
2014,02,17,12,49,4.90
2014,02,17,12,50,6.00
2014,02,17,12,51,3.50
2014,02,17,12,52,4.20
2014,02,17,12,53,2.40
2014,02,17,12,54,3.40
2014,02,17,12,55,3.80
2014,02,17,12,56,2.30
2014,02,17,12,57,2.60
2014,02,17,12,58,3.00
2014,02,17,12,59,3.80
2014,02,17,13,00,2.50
2014,02,17,13,01,5.20
2014,02,17,13,02,6.50
2014,02,17,13,03,5.10
2014,02,17,13,04,5.30
2014,02,17,13,05,5.10
2014,02,17,13,06,4.00
2014,02,17,13,07,3.80
2014,02,17,13,08,6.00
2014,02,17,13,09,6.00
2014,02,17,13,10,3.80
2014,02,17,13,11,3.40
2014,02,17,13,12,4.30
2014,02,17,13,13,4.80
2014,02,17,13,14,4.00
2014,02,17,13,15,5.90
2014,02,17,13,16,3.10
2014,02,17,13,17,1.50
2014,02,17,13,18,0.30
2014,02,17,13,19,5.30
2014,02,17,13,20,6.80
2014,02,17,13,21,4.50
2014,02,17,13,22,3.70
2014,02,17,13,23,3.60
2014,02,17,13,24,4.80
2014,02,17,13,25,3.60
2014,02,17,13,26,4.40
2014,02,17,13,27,6.10
2014,02,17,13,28,8.60
2014,02,17,13,29,7.90
2014,02,17,13,30,6.40
2014,02,17,13,31,6.60
2014,02,17,13,32,6.20
2014,02,17,13,33,3.10
2014,02,17,13,34,7.50
2014,02,17,13,35,6.40
2014,02,17,13,36,4.20
2014,02,17,13,37,5.50
2014,02,17,13,38,4.70
2014,02,17,13,39,5.00
2014,02,17,13,40,4.70
2014,02,17,13,41,5.80
2014,02,17,13,42,6.80
2014,02,17,13,43,5.80
2014,02,17,13,44,4.40
2014,02,17,13,45,5.30
2014,02,17,13,46,5.70
2014,02,17,13,47,7.90
2014,02,17,13,48,5.90
2014,02,17,13,49,3.00
2014,02,17,13,50,5.00
2014,02,17,13,51,6.80
2014,02,17,13,52,7.00
2014,02,17,13,53,8.30
2014,02,17,13,54,8.50
2014,02,17,13,55,8.40
2014,02,17,13,56,5.70
2014,02,17,13,57,5.10
2014,02,17,13,58,6.80
2014,02,17,13,59,4.80
2014,02,17,14,00,5.00
2014,02,17,14,01,5.90
2014,02,17,14,02,7.50
2014,02,17,14,03,5.40
2014,02,17,14,04,8.80
2014,02,17,14,05,6.20
2014,02,17,14,06,3.90
2014,02,17,14,07,3.30
2014,02,17,14,08,4.20
2014,02,17,14,09,4.20
2014,02,17,14,10,5.10
2014,02,17,14,11,3.00
2014,02,17,14,12,6.20
2014,02,17,14,13,4.20
2014,02,17,14,14,6.30
2014,02,17,14,15,5.60
2014,02,17,14,16,5.70
2014,02,17,14,17,6.60
2014,02,17,14,18,4.00
2014,02,17,14,19,2.50
2014,02,17,14,20,3.20
2014,02,17,14,21,3.70
2014,02,17,14,22,6.40
2014,02,17,14,23,7.70
2014,02,17,14,24,5.30
2014,02,17,14,25,6.80
2014,02,17,14,26,4.10
2014,02,17,14,27,5.50
2014,02,17,14,28,7.10
2014,02,17,14,29,3.30
2014,02,17,14,30,4.80
2014,02,17,14,31,3.50
2014,02,17,14,32,3.60
2014,02,17,14,33,2.90
2014,02,17,14,34,4.30
2014,02,17,14,35,7.80
2014,02,17,14,36,5.30
2014,02,17,14,37,5.30
2014,02,17,14,38,3.70
2014,02,17,14,39,5.30
2014,02,17,14,40,2.00
2014,02,17,14,41,4.20
2014,02,17,14,42,2.00
2014,02,17,14,43,1.00
2014,02,17,14,44,1.40
2014,02,17,14,45,3.90
2014,02,17,14,46,6.40
2014,02,17,14,47,7.20
2014,02,17,14,48,7.40
2014,02,17,14,49,3.50
2014,02,17,14,50,4.90
2014,02,17,14,51,4.40
2014,02,17,14,52,3.30
2014,02,17,14,53,5.40
2014,02,17,14,54,5.50
2014,02,17,14,55,2.30
2014,02,17,14,56,3.30
2014,02,17,14,57,4.60
2014,02,17,14,58,5.30
2014,02,17,14,59,3.00
2014,02,17,15,00,4.50
2014,02,17,15,01,3.50
2014,02,17,15,02,3.00
2014,02,17,15,03,2.80
2014,02,17,15,04,2.50
2014,02,17,15,05,5.00
2014,02,17,15,06,3.60
2014,02,17,15,07,1.40
2014,02,17,15,08,1.60
2014,02,17,15,09,3.30
2014,02,17,15,10,2.10
2014,02,17,15,11,5.60
2014,02,17,15,12,4.70
2014,02,17,15,13,4.40
2014,02,17,15,14,4.40
2014,02,17,15,15,8.20
2014,02,17,15,16,4.70
2014,02,17,15,17,2.30
2014,02,17,15,18,5.30
2014,02,17,15,19,3.90
2014,02,17,15,20,4.40
2014,02,17,15,21,4.10
2014,02,17,15,22,3.30
2014,02,17,15,23,4.60
2014,02,17,15,24,6.90
2014,02,17,15,25,7.30
2014,02,17,15,26,5.70
2014,02,17,15,27,6.60
2014,02,17,15,28,5.50
2014,02,17,15,29,1.70
2014,02,17,15,30,4.00
2014,02,17,15,31,6.20
2014,02,17,15,32,4.30
2014,02,17,15,33,2.90
2014,02,17,15,34,2.70
2014,02,17,15,35,1.30
2014,02,17,15,36,5.00
2014,02,17,15,37,8.00
2014,02,17,15,38,5.10
2014,02,17,15,39,4.20
2014,02,17,15,40,6.40
2014,02,17,15,41,4.20
2014,02,17,15,42,3.90
2014,02,17,15,43,1.40
2014,02,17,15,44,4.50
2014,02,17,15,45,5.20
2014,02,17,15,46,4.20
2014,02,17,15,47,4.30
2014,02,17,15,48,4.30
2014,02,17,15,49,4.80
2014,02,17,15,50,4.80
2014,02,17,15,51,5.40
2014,02,17,15,52,6.20
2014,02,17,15,53,5.70
2014,02,17,15,54,7.40
2014,02,17,15,55,4.10
2014,02,17,15,56,4.30
2014,02,17,15,57,2.80
2014,02,17,15,58,3.20
2014,02,17,15,59,4.00
2014,02,17,16,00,4.70
2014,02,17,16,01,4.60
2014,02,17,16,02,4.00
2014,02,17,16,03,3.10
2014,02,17,16,04,2.60
2014,02,17,16,05,2.90
2014,02,17,16,06,2.10
2014,02,17,16,07,0.60
2014,02,17,16,08,3.20
2014,02,17,16,09,4.80
2014,02,17,16,10,0.70
2014,02,17,16,11,2.10
2014,02,17,16,12,2.30
2014,02,17,16,13,2.60
2014,02,17,16,14,1.90
2014,02,17,16,15,4.10
2014,02,17,16,16,1.70
2014,02,17,16,17,2.60
2014,02,17,16,18,1.00
2014,02,17,16,19,0.60
2014,02,17,16,20,0.60
2014,02,17,16,21,0.30
2014,02,17,16,22,2.40
2014,02,17,16,23,2.30
2014,02,17,16,24,1.10
2014,02,17,16,25,0.30
2014,02,17,16,26,1.20
2014,02,17,16,27,3.30
2014,02,17,16,28,1.90
2014,02,17,16,29,1.90
2014,02,17,16,30,1.40
2014,02,17,16,31,1.60
2014,02,17,16,32,1.70
2014,02,17,16,33,1.40
2014,02,17,16,34,1.70
2014,02,17,16,35,1.60
2014,02,17,16,36,0.10
2014,02,17,16,37,0.40
2014,02,17,16,38,1.30
2014,02,17,16,39,0.40
2014,02,17,16,40,0.80
2014,02,17,16,41,1.60
2014,02,17,16,42,1.40
2014,02,17,16,43,1.10
2014,02,17,16,44,1.20
2014,02,17,16,45,1.30
2014,02,17,16,46,0.60
2014,02,17,16,47,0.00
2014,02,17,16,48,0.90
2014,02,17,16,49,1.20
2014,02,17,16,50,0.50
2014,02,17,16,51,2.00
2014,02,17,16,52,0.70
2014,02,17,16,53,1.10
2014,02,17,16,54,0.20
2014,02,17,16,55,1.10
2014,02,17,16,56,0.60
2014,02,17,16,57,1.00
2014,02,17,16,58,1.30
2014,02,17,16,59,0.40
2014,02,17,17,00,0.40
2014,02,17,17,01,0.70
2014,02,17,17,02,0.20
2014,02,17,17,03,0.50
2014,02,17,17,04,0.40
2014,02,17,17,05,0.40
2014,02,17,17,06,1.00
2014,02,17,17,07,1.80
2014,02,17,17,08,1.40
2014,02,17,17,09,1.60
2014,02,17,17,10,0.30
2014,02,17,17,11,1.00
2014,02,17,17,12,0.30
2014,02,17,17,13,0.60
2014,02,17,17,14,1.50
2014,02,17,17,15,0.30
2014,02,17,17,16,1.30
2014,02,17,17,17,2.80
2014,02,17,17,18,2.00
2014,02,17,17,19,2.00
2014,02,17,17,20,2.20
2014,02,17,17,21,2.40
2014,02,17,17,22,1.00
2014,02,17,17,23,1.30
2014,02,17,17,24,0.80
2014,02,17,17,25,1.20
2014,02,17,17,26,0.60
2014,02,17,17,27,1.30
2014,02,17,17,28,0.60
2014,02,17,17,29,2.60
2014,02,17,17,30,1.30
2014,02,17,17,31,1.40
2014,02,17,17,32,0.90
2014,02,17,17,33,0.50
2014,02,17,17,34,0.10
2014,02,17,17,35,0.60
2014,02,17,17,36,0.60
2014,02,17,17,37,0.30
2014,02,17,17,38,0.60
2014,02,17,17,39,1.10
2014,02,17,17,40,1.50
2014,02,17,17,41,1.90
2014,02,17,17,42,2.10
2014,02,17,17,43,2.70
2014,02,17,17,44,1.70
2014,02,17,17,45,1.70
2014,02,17,17,46,2.30
2014,02,17,17,47,1.50
2014,02,17,17,48,2.20
2014,02,17,17,49,1.80
2014,02,17,17,50,1.40
2014,02,17,17,51,1.60
2014,02,17,17,52,1.90
2014,02,17,17,53,1.60
2014,02,17,17,54,2.10
2014,02,17,17,55,2.30
2014,02,17,17,56,2.20
2014,02,17,17,57,2.20
2014,02,17,17,58,1.20
2014,02,17,17,59,1.00
2014,02,17,18,00,0.90
2014,02,17,18,01,0.30
2014,02,17,18,02,0.60
2014,02,17,18,03,0.80
2014,02,17,18,04,1.40
2014,02,17,18,05,1.10
2014,02,17,18,06,1.70